Station TAWM4 - Tawas Point, MI Image indicating link to RSS feed of recent meteorological observations for station TAWM4


Conditions at TAWM4 as of
(3:40 pm EDT)
1940 GMT on 09/23/2023:
     

Click on the graph icon in the table below to see a time series plot of the last five days of that observation.

5-day plot - Wind Direction Wind Direction (WDIR):ENE ( 70 deg true )
5-day plot - Wind Speed Wind Speed (WSPD): 8.0 kts
5-day plot - Wind Gust Wind Gust (GST): 13.0 kts
5-day plot - Atmospheric Pressure Atmospheric Pressure (PRES):30.20 in
5-day plot - Air Temperature Air Temperature (ATMP): 66.9 °F
5-day plot - Wind Speed at 10 Meters Wind Speed at 10 meters (WSPD10M): 7.8 kts
5-day plot - Wind Speed at 20 Meters Wind Speed at 20 meters (WSPD20M): 7.8 kts
5-day plot -  Wind Speed, Wind Gust and Atmospheric Pressure Combined plot of Wind Speed, Gust, and Air Pressure
Previous observations
TIME
(EDT)
5-day plot - Wind Direction
WDIR
 
5-day plot - Wind Speed
WSPD
kts
5-day plot - Wind Gust
GST
kts
5-day plot - Wave Height
WVHT
ft
5-day plot - Dominant Wave Period
DPD
sec
5-day plot - Average Wave Period
APD
sec
5-day plot - Mean Wave Direction
MWD
 
5-day plot - Atmospheric Pressure
PRES
in
5-day plot - Pressure Tendency
PTDY
in
5-day plot - Air Temperature
ATMP
°F
5-day plot - Water Temperature
WTMP
°F
5-day plot - Dew Point
DEWP
°F
5-day plot - Salinity
SAL
psu
5-day plot - Visibility
VIS
nmi
5-day plot - Tide (above MLLW)
TIDE
ft
2023-09-23 03:30 pmENE 8.0 14.0----30.19- 66.9-----
2023-09-23 03:20 pmENE 8.9 13.0----30.20- 67.3-----
2023-09-23 03:10 pmENE 7.0 12.0----30.21- 67.5-----
2023-09-23 03:00 pmENE 8.0 12.0----30.20-0.04 67.6-----
2023-09-23 02:50 pmENE 6.0 11.1----30.21- 67.3-----
2023-09-23 02:40 pmENE 7.0 11.1----30.22- 67.6-----
2023-09-23 02:30 pmENE 8.0 11.1----30.21- 67.3-----
2023-09-23 02:20 pmENE 8.0 9.9----30.21- 67.5-----
2023-09-23 02:10 pmENE 7.0 11.1----30.21- 68.5-----
2023-09-23 02:00 pmENE 6.0 11.1----30.22-0.02 67.6-----
2023-09-23 01:50 pmENE 5.1 9.9----30.23- 68.2-----
2023-09-23 01:40 pmENE 5.1 8.0----30.23- 68.4-----
2023-09-23 01:30 pmENE 5.1 11.1----30.23- 67.8-----
2023-09-23 01:20 pm E 7.0 9.9----30.22- 67.6-----
2023-09-23 01:10 pm E 7.0 9.9----30.23- 68.0-----
2023-09-23 01:00 pm E 5.1 9.9----30.24-0.01 67.8-----
2023-09-23 12:50 pm E 8.0 9.9----30.24- 68.5-----
2023-09-23 12:40 pm E 6.0 9.9----30.22- 69.8-----
2023-09-23 12:30 pm E 7.0 11.1----30.23- 68.7-----
2023-09-23 12:20 pm E 8.0 8.9----30.24- 68.4-----
2023-09-23 12:10 pm E 5.1 8.9----30.25- 67.5-----
2023-09-23 12:00 pm E 6.0 8.0----30.24+0.00 68.4-----
2023-09-23 11:50 am E 4.1 8.0----30.23- 68.5-----
2023-09-23 11:40 am E 5.1 8.9----30.23- 68.0-----
2023-09-23 11:30 am E 5.1 8.9----30.25- 68.0-----
2023-09-23 11:20 am E 5.1 8.9----30.25- 68.9-----
2023-09-23 11:10 am E 4.1 7.0----30.25- 68.5-----
2023-09-23 11:00 am E 5.1 8.0----30.24+0.00 69.1-----
2023-09-23 10:50 amESE 4.1 8.0----30.24- 68.5-----
2023-09-23 10:40 amESE 4.1 7.0----30.24- 68.0-----
2023-09-23 10:30 amESE 2.9 7.0----30.25- 68.0-----
2023-09-23 10:20 amESE 2.9 7.0----30.25- 66.9-----
2023-09-23 10:10 amESE 4.1 7.0----30.25- 66.9-----
2023-09-23 10:00 am SE 2.9 5.1----30.25+0.02 66.4-----
2023-09-23 09:50 am SE 1.9 5.1----30.24- 66.2-----
2023-09-23 09:40 am SE 2.9 5.1----30.24- 66.2-----
2023-09-23 09:30 amESE 1.9 5.1----30.24- 66.9-----
2023-09-23 09:20 amESE 2.9 5.1----30.25- 66.2-----
2023-09-23 09:10 am SE 1.9 4.1----30.25- 65.1-----
2023-09-23 09:00 amESE 1.9 5.1----30.24+0.01 64.6-----
2023-09-23 08:50 am SE 2.9 7.0----30.24- 64.4-----
2023-09-23 08:40 am SE 2.9 6.0----30.24- 64.4-----
2023-09-23 08:30 am SE 2.9 6.0----30.24- 63.9-----
2023-09-23 08:20 amESE 1.9 5.1----30.23- 63.5-----
2023-09-23 08:10 amESE 2.9 6.0----30.24- 63.5-----
2023-09-23 08:00 amESE 2.9 7.0----30.24+0.02 63.3-----
2023-09-23 07:50 amESE 4.1 7.0----30.22- 63.0-----
2023-09-23 07:40 amESE 1.9 5.1----30.23- 62.8-----
2023-09-23 07:30 amESE 2.9 5.1----30.23- 62.4-----
2023-09-23 07:20 amESE 1.9 4.1----30.22- 62.2-----
2023-09-23 07:10 amESE 1.9 4.1----30.23- 62.1-----
2023-09-23 07:00 amESE 1.9 4.1----30.23+0.00 62.2-----
2023-09-23 06:50 amESE 1.9 4.1----30.22- 62.4-----
2023-09-23 06:40 am SE 2.9 6.0----30.22- 62.4-----
2023-09-23 06:30 amESE 1.9 5.1----30.23- 62.6-----
2023-09-23 06:20 am SE 1.9 5.1----30.22- 62.6-----
2023-09-23 06:10 am SE 1.9 6.0----30.22- 62.6-----
2023-09-23 06:00 am SE 2.9 7.0----30.23+0.01 63.0-----
2023-09-23 05:50 am SE 4.1 7.0----30.23- 63.1-----
2023-09-23 05:40 am SE 4.1 8.0----30.22- 63.3-----
2023-09-23 05:30 am SE 4.1 8.0----30.22- 63.3-----
2023-09-23 05:20 am SE 6.0 8.0----30.23- 63.3-----
2023-09-23 05:10 am SE 7.0 8.9----30.22- 63.5-----
2023-09-23 05:00 am SE 6.0 8.9----30.22+0.00 63.5-----
2023-09-23 04:50 am SE 4.1 8.9----30.23- 63.5-----
2023-09-23 04:40 am SE 6.0 8.0----30.23- 63.5-----
2023-09-23 04:30 am SE 2.9 8.0----30.22- 63.7-----
2023-09-23 04:20 am SE 6.0 8.9----30.22- 63.9-----
2023-09-23 04:10 am SE 5.1 8.0----30.22- 64.0-----
2023-09-23 04:00 am SE 2.9 8.0----30.23+0.00 64.2-----
2023-09-23 03:50 am SE 5.1 8.0----30.22- 64.4-----
2023-09-23 03:40 am SE 6.0 8.9----30.22- 64.6-----
2023-09-23 03:30 am SE 7.0 8.0----30.23- 64.6-----
2023-09-23 03:20 am SE 5.1 8.9----30.24- 64.8-----
2023-09-23 03:10 am SE 7.0 9.9----30.24- 64.8-----
2023-09-23 03:00 am SE 7.0 11.1----30.22-0.02 64.9-----
2023-09-23 02:50 am SE 8.0 11.1----30.23- 65.3-----
2023-09-23 02:40 am SE 8.9 12.0----30.24- 65.3-----
2023-09-23 02:30 am SE 8.9 12.0----30.24- 65.5-----
2023-09-23 02:20 am SE 8.0 13.0----30.23- 65.7-----
2023-09-23 02:10 am SE 8.0 12.0----30.22- 65.8-----
2023-09-23 02:00 am SE 6.0 11.1----30.22-0.01 65.8-----
2023-09-23 01:50 am SE 5.1 8.0----30.23- 65.8-----
2023-09-23 01:40 am SE 4.1 9.9----30.22- 66.0-----
2023-09-23 01:30 am SE 5.1 8.0----30.22- 65.8-----
2023-09-23 01:20 am SE 4.1 6.0----30.22- 65.8-----
2023-09-23 01:10 am SE 2.9 6.0----30.22- 66.0-----
2023-09-23 01:00 amESE 2.9 7.0----30.23+0.01 66.2-----
2023-09-23 12:50 amESE 4.1 7.0----30.23- 66.2-----
2023-09-23 12:40 amESE 4.1 7.0----30.24- 66.4-----
2023-09-23 12:30 amESE 4.1 7.0----30.23- 66.4-----
2023-09-23 12:20 amESE 4.1 7.0----30.22- 66.4-----
2023-09-23 12:10 am SE 2.9 5.1----30.23- 66.4-----
2023-09-23 12:00 amESE 4.1 6.0----30.24+0.01 66.4-----
2023-09-22 11:50 pmESE 4.1 8.0----30.24- 66.6-----
2023-09-22 11:40 pmESE 6.0 11.1----30.24- 66.7-----
2023-09-22 11:30 pmESE 6.0 8.9----30.23- 66.7-----
2023-09-22 11:20 pmESE 6.0 9.9----30.22- 66.7-----
2023-09-22 11:10 pm E 6.0 9.9----30.23- 66.7-----
2023-09-22 11:00 pm E 6.0 9.9----30.23+0.01 66.9-----
2023-09-22 10:50 pmESE 4.1 6.0----30.23- 67.1-----
2023-09-22 10:40 pmESE 4.1 7.0----30.23- 67.3-----
2023-09-22 10:30 pmESE 4.1 6.0----30.23- 67.3-----
2023-09-22 10:20 pmESE 4.1 5.1----30.23- 67.3-----
2023-09-22 10:10 pmESE 2.9 5.1----30.22- 67.3-----
2023-09-22 10:00 pm SE 2.9 5.1----30.22+0.00 67.5-----
2023-09-22 09:50 pm SE 4.1 5.1----30.22- 67.5-----
2023-09-22 09:40 pm SE 4.1 6.0----30.22- 67.5-----
2023-09-22 09:30 pmESE 2.9 5.1----30.22- 67.6-----
2023-09-22 09:20 pm SE 4.1 6.0----30.23- 67.8-----
2023-09-22 09:10 pm SE 4.1 6.0----30.23- 67.8-----
2023-09-22 09:00 pm SE 4.1 5.1----30.23+0.01 68.0-----
2023-09-22 08:50 pmESE 4.1 7.0----30.23- 68.0-----
2023-09-22 08:40 pm SE 5.1 8.0----30.23- 68.2-----
2023-09-22 08:30 pmESE 5.1 9.9----30.22- 68.2-----
2023-09-22 08:20 pmESE 6.0 8.9----30.22- 68.0-----
2023-09-22 08:10 pmESE 5.1 7.0----30.22- 68.0-----
2023-09-22 08:00 pmESE 5.1 8.0----30.22-0.02 68.0-----
2023-09-22 07:50 pmESE 6.0 8.9----30.22- 68.0-----
2023-09-22 07:40 pmESE 5.1 8.0----30.21- 68.2-----
2023-09-22 07:30 pmESE 4.1 8.0----30.20- 68.2-----
2023-09-22 07:20 pmESE 4.1 8.0----30.21- 68.2-----
2023-09-22 07:10 pmESE 5.1 8.0----30.22- 68.4-----
2023-09-22 07:00 pm E 4.1 7.0----30.22-0.01 68.5-----
2023-09-22 06:50 pmENE 2.9 5.1----30.21- 68.9-----
2023-09-22 06:40 pmENE 1.9 6.0----30.22- 69.3-----
2023-09-22 06:30 pmENE 4.1 6.0----30.22- 70.3-----
2023-09-22 06:20 pm NE 4.1 6.0----30.22- 70.9-----
2023-09-22 06:10 pm NE 1.9 5.1----30.23- 71.1-----
2023-09-22 06:00 pmENE 4.1 7.0----30.22-0.01 70.5-----
2023-09-22 05:50 pmENE 6.0 8.0----30.23- 70.5-----
2023-09-22 05:40 pmENE 4.1 8.9----30.22- 70.5-----
2023-09-22 05:30 pmENE 6.0 9.9----30.23- 70.3-----
2023-09-22 05:20 pmENE 5.1 8.9----30.23- 71.1-----
2023-09-22 05:10 pmENE 4.1 8.0----30.22- 70.9-----
2023-09-22 05:00 pmENE 4.1 7.0----30.24-0.01 71.1-----
2023-09-22 04:50 pm E 5.1 7.0----30.24- 71.2-----
2023-09-22 04:40 pmENE 4.1 7.0----30.23- 71.4-----
2023-09-22 04:30 pm E 5.1 7.0----30.24- 71.2-----
2023-09-22 04:20 pm E 4.1 7.0----30.25- 71.4-----
2023-09-22 04:10 pm E 4.1 8.0----30.24- 71.6-----
2023-09-22 04:00 pm E 2.9 6.0----30.23-0.04 72.1-----
2023-09-22 03:50 pm E 4.1 5.1----30.24- 72.0-----